Hourly Data Report for December 06, 2017

All times are specified in Local Standard Time (LST). Add 1 hour to adjust for Daylight Saving Time where and when it is observed.

LA RONGE A
SASKATCHEWAN

55°09'05.000" N
105°16'01.000" W
379.20 m
4064155
71922
YVC

Download Data

Hourly Data (December 2017)
Hourly Data Report for December 6, 2017
Temp Definition
°C
Dew Point Temp Definition
°C
Rel Hum Definition
%
Wind Dir Definition
10's deg

Wind Spd Definition
km/h
Visibility Definition
km
Stn Press Definition
kPa
Hmdx Definition


Wind Chill Definition


Weather Definition


TIME
00:00 Legend Double Dagger -24.4 -26.7 81 26 7 24.1 98.45   -31 Clear
01:00 Legend Double Dagger -25.3 -27.7 81 25 10 24.1 98.52   -34 LegendNANA
02:00 Legend Double Dagger -26.1 -28.6 80 26 8 24.1 98.56   -33 LegendNANA
03:00 Legend Double Dagger -25.2 -27.9 79 25 6 24.1 98.65   -31 Clear
04:00 Legend Double Dagger -24.9 -27.3 81 26 5 24.1 98.70   -30 LegendNANA
05:00 Legend Double Dagger -24.0 -26.6 80 27 6 24.1 98.73   -30 LegendNANA
06:00 Legend Double Dagger -25.4 -28.1 79 27 10 24.1 98.79   -34 Clear
07:00 Legend Double Dagger -24.3 -26.9 79 22 5 24.1 98.75   -29 LegendNANA
08:00 Legend Double Dagger -24.8 -27.5 79 25 8 24.1 98.75   -32 LegendNANA
09:00 Legend Double Dagger -23.9 -26.5 80 22 9 24.1 98.73   -31 Mainly Clear
10:00 Legend Double Dagger -22.0 -24.3 81 26 12 24.1 98.76   -30 LegendNANA
11:00 Legend Double Dagger -19.9 -22.0 84 27 10 2.4 98.75   -27 Snow,Fog
12:00 Legend Double Dagger -18.1 -20.2 84 23 7 8.1 98.71   -23 Snow,Fog
13:00 Legend Double Dagger -15.5 -17.4 86 24 14 9.7 98.56   -23 Snow,Fog
14:00 Legend Double Dagger -13.5 -15.2 87 26 11 6.4 98.47   -20 Snow,Fog
15:00 Legend Double Dagger -12.2 -13.7 88 26 12 9.7 98.38   -19 Snow,Fog
16:00 Legend Double Dagger -11.2 -12.7 89 24 9 9.7 98.32   -16 Snow,Fog
17:00 Legend Double Dagger -10.8 -12.2 89 19 7 9.7 98.21   -15 Snow,Fog
18:00 Legend Double Dagger -9.8 -11.1 90 20 9 9.7 98.06   -15 Snow,Fog
19:00 Legend Double Dagger -10.1 -11.4 90 17 8 19.3 97.97   -15 LegendNANA
20:00 Legend Double Dagger -11.6 -13.0 89 16 7 24.1 97.87   -16 LegendNANA
21:00 Legend Double Dagger -11.8 -13.2 89 18 6 24.1 97.76   -16 Cloudy
22:00 Legend Double Dagger -12.2 -13.7 88 36 3 24.1 97.69   -14 LegendNANA
23:00 Legend Double Dagger -14.2 -15.8 88 36 3 24.1 97.63   -16 LegendNANA

Notes on Data Quality.

Legend

  • E = Estimated
  • M = Missing
  • NA = Not Available
  • ‡ = Partner data that is not subject to review by the National Climate Archives
Date modified: